Russell, KS

10:51 AM CDT on May 24, 2017 (GMT -0500)
Russell Municipal

Weather History for KRSL - January, 2012

Change the Weather History Date:

Sunday, January 15, 2012

  Actual Average Record
Temperature  
Mean Temperature 46 °F -  
Max Temperature 62 °F 41 °F 69 °F (2006)
Min Temperature 30 °F 19 °F -2 °F (1972)
Degree Days  
Heating Degree Days 19    
Moisture  
Dew Point 22 °F    
Average Humidity 48    
Maximum Humidity 78    
Minimum Humidity 19    
Precipitation  
Precipitation 0.00 in - - ()
Sea Level Pressure  
Sea Level Pressure 29.84 in    
Wind  
Wind Speed 16 mph (South)    
Max Wind Speed 22 mph    
Max Gust Speed 30 mph    
Visibility 10 miles    
Events      
Averages and records for this station are not official NWS values.
T = Trace of Precipitation, MM = Missing Value Source: NWS Daily Summary

Daily Weather History Graph

Daily Weather History Graph

Search for Another Location

Airport or City:

Trip Planner

Search our weather history database for the weather conditions in past years. The results will help you decide how hot, cold, wet, or windy it might be!

Date:

Astronomy

Jan. 15, 2012 Rise Set
Actual Time 7:52 AM CST 5:37 PM CST
Civil Twilight 7:23 AM CST 6:06 PM CST
Nautical Twilight 6:50 AM CST 6:39 PM CST
Astronomical Twilight 6:18 AM CST 7:11 PM CST
Moon No Moon Rise 11:15 AM CST (1/15)
Length of Visible Light 10h 43m
Length of Day
9h 44m
Waning Gibbous, 57% of the Moon is Illuminated
Jan 15
Waning Gibbous
Jan 16
Last Quarter
Jan 23
New
Jan 30
First Quarter
Feb 7
Full

Hourly Weather History & Observations

Time (CST) Temp. Windchill Dew Point Humidity Pressure Visibility Wind Dir Wind Speed Gust Speed Precip Events Conditions
12:53 AM 36.0 °F 24.7 °F 16.0 °F 44% 30.04 in 10.0 mi South 21.9 mph 29.9 mph N/A   Clear
1:53 AM 34.0 °F 23.0 °F 16.0 °F 48% 30.02 in 10.0 mi South 18.4 mph - N/A   Clear
2:53 AM 33.1 °F 22.2 °F 17.1 °F 52% 30.00 in 10.0 mi South 17.3 mph - N/A   Clear
3:53 AM 33.1 °F 21.9 °F 17.1 °F 52% 29.96 in 10.0 mi South 18.4 mph - N/A   Clear
4:53 AM 33.1 °F 22.6 °F 19.0 °F 56% 29.95 in 10.0 mi South 16.1 mph - N/A   Clear
5:53 AM 32.0 °F 20.5 °F 19.0 °F 59% 29.94 in 10.0 mi South 18.4 mph - N/A   Clear
6:53 AM 32.0 °F 20.8 °F 19.9 °F 61% 29.94 in 10.0 mi SSW 17.3 mph - N/A   Clear
7:53 AM 30.0 °F 18.7 °F 19.9 °F 66% 29.93 in 10.0 mi South 16.1 mph - N/A   Clear
8:53 AM 32.0 °F 23.0 °F 21.0 °F 64% 29.93 in 10.0 mi South 11.5 mph - N/A   Clear
9:53 AM 37.0 °F 28.1 °F 21.9 °F 54% 29.92 in 10.0 mi SSW 15.0 mph - N/A   Clear
10:53 AM 42.1 °F 34.9 °F 21.9 °F 45% 29.91 in 10.0 mi SSW 13.8 mph - N/A   Clear
11:53 AM 44.6 °F 38.8 °F 21.2 °F 39% 29.84 in 10.0 mi SSW 11.5 mph - N/A   Clear
12:53 PM 50.0 °F - 23.0 °F 35% 29.83 in 10.0 mi SSW 10.4 mph - N/A   Clear
1:53 PM 55.9 °F - 23.0 °F 28% 29.78 in 10.0 mi SSW 10.4 mph - N/A   Clear
2:53 PM 62.1 °F - 21.9 °F 21% 29.74 in 10.0 mi South 11.5 mph 16.1 mph N/A   Unknown
3:53 PM 62.1 °F - 19.0 °F 19% 29.73 in 10.0 mi South 13.8 mph - N/A   Unknown
4:53 PM 57.0 °F - 21.0 °F 25% 29.73 in 10.0 mi South 12.7 mph - N/A   Clear
5:53 PM 45.0 °F 41.2 °F 19.9 °F 37% 29.75 in 10.0 mi South 6.9 mph - N/A   Clear
6:53 PM 44.1 °F 37.7 °F 24.1 °F 45% 29.74 in 10.0 mi SSE 12.7 mph - N/A   Clear
7:53 PM 44.1 °F 36.8 °F 26.1 °F 49% 29.73 in 10.0 mi SSE 16.1 mph - N/A   Clear
8:53 PM 41.0 °F 33.9 °F 26.1 °F 55% 29.72 in 10.0 mi South 12.7 mph - N/A   Clear
9:53 PM 39.9 °F 32.5 °F 27.0 °F 60% 29.71 in 10.0 mi South 12.7 mph - N/A   Clear
10:53 PM 37.0 °F 28.9 °F 28.0 °F 70% 29.68 in 10.0 mi South 12.7 mph - N/A   Clear
11:53 PM 33.1 °F 24.4 °F 27.0 °F 78% 29.67 in 10.0 mi South 11.5 mph - N/A   Clear